Flag for Norway Weather past 2 weeks in Trondheim, Norway

Now
50 °F

Clear.


Feels Like: 47 °F
Forecast: 42 / 54 °F
Wind: 7 mph from East

Location: Trondheim / Vaernes


UV Index: 0 (Low)

Visibility: 10 mi


Pressure: 30.39 "Hg

Humidity: 50%

Dew point: 32 °F

Location of TrondheimLocation

Historic Weather in Trondheim

°F

Trondheim temperature yesterday

Maximum temperature yesterday: 59 °F (at 4:20 PM)
Minimum temperature yesterday: 30 °F (at 4:20 AM)
Average temperature yesterday: 47 °F

Past Weeks' High & Low Weather Summary

 TemperatureHumidityPressure
High61 °F (Apr 20, 2:50 PM)100% (Apr 15, 7:50 AM)30.45 "Hg (Apr 15, 7:50 AM)
Low30 °F (Apr 23, 4:20 AM)33% (Apr 23, 1:20 PM)29.00 "Hg (Apr 13, 4:50 AM)
Average44 °F68%29.91 "Hg
* Reported Apr 9 2:50 AM — Apr 24 2:50 AM, Trondheim, Weather by CustomWeather, © 2014

Note: Actual official high and low records may vary slightly from our data, if they occured in-between our weather recording intervals... More about our weather records

Advertising

Historic Weather Conditions — Data for Previous 24 hours

 ConditionsComfort  
Time TempWeatherWind HumidityBarometerVisibility
2:50 AM
Apr 24
50 °FClear.7 mph50%30.39 "Hg10 mi
1:50 AM52 °FClear.8 mph47%30.39 "Hg10 mi
1:20 AM52 °FPassing clouds.8 mph47%30.39 "HgN/A
12:50 AM52 °FPassing clouds.7 mph47%30.39 "HgN/A
12:20 AM52 °FClear.9 mph47%30.39 "Hg10 mi
11:50 PM
Apr 23
52 °FClear.12 mph47%30.39 "Hg10 mi
11:20 PM52 °FPassing clouds.10 mph47%30.39 "HgN/A
10:50 PM52 °FClear.12 mph47%30.39 "Hg10 mi
10:20 PM52 °FClear.12 mph47%30.39 "Hg10 mi
9:50 PM54 °FSunny.10 mph44%30.39 "Hg10 mi
9:20 PM54 °FSunny.13 mph44%30.36 "Hg10 mi
8:50 PM54 °FSunny.10 mph47%30.36 "Hg10 mi
8:20 PM54 °FSunny.9 mph47%30.36 "Hg10 mi
7:50 PM55 °FSunny.10 mph44%30.36 "Hg10 mi
7:20 PM57 °FPassing clouds.12 mph41%30.36 "HgN/A
6:50 PM57 °FSunny.16 mph41%30.36 "Hg10 mi
6:20 PM59 °FSunny.13 mph36%30.36 "Hg10 mi
5:50 PM59 °FSunny.12 mph39%30.36 "Hg10 mi
5:20 PM59 °FPassing clouds.10 mph39%30.36 "HgN/A
4:50 PM59 °FSunny.14 mph36%30.36 "Hg10 mi
4:20 PM59 °FSunny.14 mph36%30.36 "Hg10 mi
3:50 PM57 °FSunny.15 mph39%30.39 "Hg10 mi
3:20 PM57 °FSunny.14 mph39%30.39 "Hg10 mi
2:50 PM57 °FSunny.15 mph39%30.39 "Hg10 mi
2:20 PM57 °FSunny.15 mph36%30.39 "Hg10 mi
1:50 PM57 °FSunny.14 mph36%30.39 "Hg10 mi
1:20 PM57 °FSunny.15 mph33%30.39 "Hg10 mi
12:50 PM55 °FSunny.16 mph41%30.39 "Hg10 mi
12:20 PM55 °FSunny.13 mph36%30.39 "Hg10 mi
11:50 AM54 °FSunny.13 mph41%30.39 "Hg10 mi
11:20 AM52 °FSunny.13 mph41%30.39 "Hg10 mi
10:50 AM52 °FSunny.10 mph41%30.39 "Hg10 mi
10:20 AM50 °FSunny.10 mph43%30.42 "Hg10 mi
9:50 AM46 °FSunny.12 mph50%30.42 "Hg10 mi
9:20 AM45 °FSunny.10 mph49%30.42 "Hg10 mi
8:50 AM43 °FSunny.10 mph53%30.42 "Hg10 mi
8:20 AM41 °FSunny.12 mph57%30.42 "Hg10 mi
7:50 AM39 °FSunny.12 mph65%30.42 "Hg10 mi
7:20 AM36 °FSunny.10 mph70%30.42 "Hg10 mi
6:50 AM32 °FPassing clouds.7 mph80%30.45 "HgN/A
6:20 AM30 °FClear.8 mph86%30.42 "HgN/A
5:50 AM30 °FClear.7 mph86%30.45 "Hg10 mi
5:20 AM30 °FClear.8 mph86%30.45 "Hg10 mi
Weather by CustomWeather, © 2014

See weather overview